Alva, OK

3:54 PM CDT on October 17, 2017 (GMT -0500)
Alva Regional

Weather History for KAVK - December, 2013

Change the Weather History Date:

Tuesday, December 31, 2013

  Actual Average Record
Temperature  
Mean Temperature 40 °F -  
Max Temperature 57 °F 41 °F 69 °F (2011)
Min Temperature 24 °F 19 °F -1 °F (1968)
Degree Days  
Heating Degree Days 24    
Moisture  
Dew Point 22 °F    
Average Humidity 55    
Maximum Humidity 80    
Minimum Humidity 23    
Precipitation  
Precipitation 0.00 in - - ()
Sea Level Pressure  
Sea Level Pressure 30.17 in    
Wind  
Wind Speed 14 mph (SSW)    
Max Wind Speed 30 mph    
Max Gust Speed 37 mph    
Visibility 10 miles    
Events      
Averages and records for this station are not official NWS values.
T = Trace of Precipitation, MM = Missing Value Source: NWS Daily Summary

Daily Weather History Graph

Daily Weather History Graph

Search for Another Location

Airport or City:

Trip Planner

Search our weather history database for the weather conditions in past years. The results will help you decide how hot, cold, wet, or windy it might be!

Date:

Astronomy

Dec. 31, 2013 Rise Set
Actual Time 7:47 AM CST 5:28 PM CST
Civil Twilight 7:18 AM CST 5:57 PM CST
Nautical Twilight 6:46 AM CST 6:29 PM CST
Astronomical Twilight 6:14 AM CST 7:01 PM CST
Moon 6:42 AM CST (12/31) 5:05 PM CST (12/31)
Length of Visible Light 10h 39m
Length of Day
9h 41m
Waning Crescent, 1% of the Moon is Illuminated
Dec 31
Waning Crescent
Jan 1
New
Jan 7
First Quarter
Jan 15
Full
Jan 23
Last Quarter

Hourly Weather History & Observations

Time (CST) Temp. Windchill Dew Point Humidity Pressure Visibility Wind Dir Wind Speed Gust Speed Precip Events Conditions
12:10 AM 28.4 °F 19.7 °F 21.2 °F 74% 30.32 in 10.0 mi SW 9.2 mph - N/A   Clear
12:30 AM 28.4 °F 19.7 °F 21.2 °F 74% 30.32 in 10.0 mi SSW 9.2 mph - N/A   Clear
12:50 AM 28.4 °F 20.4 °F 21.2 °F 74% 30.32 in 10.0 mi SW 8.1 mph - N/A   Clear
1:10 AM 32.0 °F 23.6 °F 21.2 °F 64% 30.31 in 10.0 mi WSW 10.4 mph - N/A   Clear
1:30 AM 28.4 °F 19.7 °F 21.2 °F 74% 30.31 in 10.0 mi WSW 9.2 mph - N/A   Clear
1:50 AM 28.4 °F 19.7 °F 21.2 °F 74% 30.30 in 10.0 mi WSW 9.2 mph - N/A   Clear
2:10 AM 26.6 °F 18.2 °F 19.4 °F 74% 30.30 in 10.0 mi SW 8.1 mph - N/A   Clear
2:30 AM 26.6 °F 16.2 °F 21.2 °F 80% 30.30 in 10.0 mi WSW 11.5 mph - N/A   Partly Cloudy
2:50 AM 26.6 °F 16.8 °F 21.2 °F 80% 30.30 in 10.0 mi WSW 10.4 mph - N/A   Scattered Clouds
3:10 AM 28.4 °F 18.5 °F 21.2 °F 74% 30.30 in 10.0 mi WSW 11.5 mph - N/A   Scattered Clouds
3:30 AM 28.4 °F 19.1 °F 21.2 °F 74% 30.30 in 10.0 mi WSW 10.4 mph - N/A   Scattered Clouds
3:50 AM 26.6 °F 15.7 °F 21.2 °F 80% 30.29 in 10.0 mi SW 12.7 mph - N/A   Scattered Clouds
4:10 AM 26.6 °F 18.2 °F 21.2 °F 80% 30.29 in 10.0 mi SW 8.1 mph - N/A   Partly Cloudy
4:30 AM 26.6 °F 19.1 °F 19.4 °F 74% 30.27 in 10.0 mi SW 6.9 mph - N/A   Partly Cloudy
4:50 AM 24.8 °F 14.6 °F 19.4 °F 80% 30.27 in 10.0 mi SSW 10.4 mph - N/A   Clear
5:10 AM 24.8 °F 16.1 °F 19.4 °F 80% 30.26 in 10.0 mi SW 8.1 mph - N/A   Clear
5:30 AM 26.6 °F 17.5 °F 19.4 °F 74% 30.26 in 10.0 mi SW 9.2 mph - N/A   Clear
5:50 AM 26.6 °F 16.2 °F 19.4 °F 74% 30.25 in 10.0 mi SW 11.5 mph - N/A   Clear
6:10 AM 30.2 °F 20.2 °F 21.2 °F 69% 30.26 in 10.0 mi SW 12.7 mph - N/A   Clear
6:30 AM 32.0 °F 22.1 °F 23.0 °F 69% 30.26 in 10.0 mi SW 13.8 mph - N/A   Clear
6:50 AM 32.0 °F 22.1 °F 21.2 °F 64% 30.26 in 10.0 mi SW 13.8 mph - N/A   Clear
7:10 AM 32.0 °F 21.2 °F 21.2 °F 64% 30.26 in 10.0 mi SW 16.1 mph - N/A   Clear
7:30 AM 32.0 °F 22.1 °F 23.0 °F 69% 30.26 in 10.0 mi SW 13.8 mph - N/A   Clear
7:50 AM 32.0 °F 22.1 °F 23.0 °F 69% 30.27 in 10.0 mi SSW 13.8 mph - N/A   Clear
8:10 AM 32.0 °F 24.2 °F 23.0 °F 69% 30.27 in 10.0 mi SSW 9.2 mph - N/A   Clear
8:30 AM 35.6 °F 25.9 °F 23.0 °F 60% 30.27 in 10.0 mi SSW 16.1 mph - N/A   Clear
8:50 AM 37.4 °F 28.5 °F 23.0 °F 56% 30.27 in 10.0 mi SSW 15.0 mph - N/A   Clear
9:10 AM 39.2 °F 30.8 °F 24.8 °F 56% 30.26 in 10.0 mi SSW 15.0 mph - N/A   Clear
9:30 AM 41.0 °F 32.2 °F 23.0 °F 49% 30.26 in 10.0 mi SSW 18.4 mph 23.0 mph N/A   Clear
9:50 AM 44.6 °F 36.1 °F 23.0 °F 43% 30.26 in 10.0 mi SSW 21.9 mph 25.3 mph N/A   Clear
10:10 AM 46.4 °F 39.0 °F 23.0 °F 40% 30.25 in 10.0 mi SSW 19.6 mph 25.3 mph N/A   Clear
10:30 AM 48.2 °F - 23.0 °F 37% 30.26 in 10.0 mi SSW 19.6 mph 28.8 mph N/A   Clear
10:50 AM 50.0 °F - 23.0 °F 35% 30.25 in 10.0 mi SSW 21.9 mph 27.6 mph N/A   Clear
11:10 AM 50.0 °F - 21.2 °F 32% 30.24 in 10.0 mi SSW 28.8 mph 32.2 mph N/A   Clear
11:30 AM 50.0 °F - 19.4 °F 30% 30.21 in 10.0 mi SSW 29.9 mph 35.7 mph N/A   Clear
11:50 AM 53.6 °F - 21.2 °F 28% 30.19 in 10.0 mi SSW 25.3 mph 32.2 mph N/A   Clear
12:10 PM 55.4 °F - 19.4 °F 25% 30.18 in 10.0 mi SSW 26.5 mph 32.2 mph N/A   Clear
12:30 PM 55.4 °F - 19.4 °F 25% 30.16 in 10.0 mi SSW 27.6 mph 32.2 mph N/A   Clear
12:50 PM 55.4 °F - 19.4 °F 25% 30.14 in 10.0 mi SSW 27.6 mph 36.8 mph N/A   Clear
1:10 PM 55.4 °F - 21.2 °F 26% 30.13 in 10.0 mi SSW 21.9 mph 28.8 mph N/A   Clear
1:30 PM 57.2 °F - 21.2 °F 25% 30.12 in 10.0 mi SSW 23.0 mph 28.8 mph N/A   Clear
1:50 PM 57.2 °F - 19.4 °F 23% 30.09 in 10.0 mi South 26.5 mph 32.2 mph N/A   Clear
2:10 PM 57.2 °F - 19.4 °F 23% 30.09 in 10.0 mi SSW 28.8 mph - N/A   Clear
2:30 PM 57.2 °F - 19.4 °F 23% 30.08 in 10.0 mi SSW 28.8 mph 35.7 mph N/A   Clear
2:50 PM 55.4 °F - 19.4 °F 25% 30.07 in 10.0 mi SSW 25.3 mph 32.2 mph N/A   Clear
3:10 PM 55.4 °F - 19.4 °F 25% 30.07 in 10.0 mi South 21.9 mph 35.7 mph N/A   Clear
3:30 PM 55.4 °F - 21.2 °F 26% 30.06 in 10.0 mi SSW 27.6 mph 32.2 mph N/A   Clear
3:50 PM 55.4 °F - 19.4 °F 25% 30.06 in 10.0 mi SSW 20.7 mph 28.8 mph N/A   Clear
4:10 PM 55.4 °F - 21.2 °F 26% 30.06 in 10.0 mi SSW 23.0 mph 28.8 mph N/A   Clear
4:30 PM 53.6 °F - 21.2 °F 28% 30.06 in 10.0 mi SSW 15.0 mph - N/A   Clear
4:50 PM 51.8 °F - 21.2 °F 30% 30.06 in 10.0 mi SSW 13.8 mph 19.6 mph N/A   Clear
5:10 PM 50.0 °F - 21.2 °F 32% 30.06 in 10.0 mi SSW 13.8 mph - N/A   Clear
5:30 PM 48.2 °F - 23.0 °F 37% 30.06 in 10.0 mi SSW 13.8 mph - N/A   Clear
5:50 PM 44.6 °F 38.4 °F 23.0 °F 43% 30.07 in 10.0 mi South 12.7 mph - N/A   Clear
6:10 PM 41.0 °F 33.9 °F 23.0 °F 49% 30.07 in 10.0 mi South 12.7 mph - N/A   Clear
6:30 PM 41.0 °F 33.5 °F 23.0 °F 49% 30.07 in 10.0 mi South 13.8 mph - N/A   Scattered Clouds
6:50 PM 39.2 °F 31.2 °F 23.0 °F 52% 30.06 in 10.0 mi South 13.8 mph - N/A   Mostly Cloudy
7:10 PM 39.2 °F 31.2 °F 24.8 °F 56% 30.07 in 10.0 mi South 13.8 mph - N/A   Mostly Cloudy
7:30 PM 39.2 °F 30.8 °F 24.8 °F 56% 30.07 in 10.0 mi South 15.0 mph - N/A   Mostly Cloudy
7:50 PM 39.2 °F 31.2 °F 24.8 °F 56% 30.06 in 10.0 mi South 13.8 mph - N/A   Mostly Cloudy
8:10 PM 37.4 °F 29.3 °F 24.8 °F 60% 30.06 in 10.0 mi South 12.7 mph - N/A   Mostly Cloudy
8:30 PM 35.6 °F 28.0 °F 24.8 °F 65% 30.06 in 10.0 mi South 10.4 mph - N/A   Mostly Cloudy
8:50 PM 35.6 °F 27.1 °F 24.8 °F 65% 30.06 in 10.0 mi South 12.7 mph - N/A   Overcast
9:10 PM 35.6 °F 28.0 °F 24.8 °F 65% 30.05 in 10.0 mi South 10.4 mph - N/A   Overcast
9:30 PM 33.8 °F 25.3 °F 24.8 °F 70% 30.05 in 10.0 mi South 11.5 mph - N/A   Overcast
9:50 PM 32.0 °F 22.5 °F 23.0 °F 69% 30.04 in 10.0 mi South 12.7 mph - N/A   Mostly Cloudy
10:10 PM 32.0 °F 22.1 °F 24.8 °F 75% 30.04 in 10.0 mi South 13.8 mph - N/A   Mostly Cloudy
10:30 PM 32.0 °F 22.1 °F 24.8 °F 75% 30.04 in 10.0 mi South 13.8 mph - N/A   Mostly Cloudy
10:50 PM 32.0 °F 22.5 °F 24.8 °F 75% 30.03 in 10.0 mi South 12.7 mph - N/A   Mostly Cloudy
11:10 PM 32.0 °F 22.5 °F 24.8 °F 75% 30.03 in 10.0 mi South 12.7 mph - N/A   Mostly Cloudy
11:30 PM 32.0 °F 23.0 °F 24.8 °F 75% 30.03 in 10.0 mi South 11.5 mph - N/A   Mostly Cloudy
11:50 PM 32.0 °F 23.0 °F 24.8 °F 75% 30.02 in 10.0 mi South 11.5 mph - N/A   Mostly Cloudy